0 HST 1 20580U 90037B 25267.59491433 .00010528 00000-0 38387-3 0 9992 2 20580 28.4660 90.5714 0002787 80.9986 279.0924 15.26466901747880 0 ISS (ZARYA) 1 25544U 98067A 25268.18031108 .00023151 00000-0 40291-3 0 9996 2 25544 51.6335 171.4428 0004262 17.1558 342.9575 15.50657957530679 0 CXO 1 25867U 99040B 25269.92889251 .00000947 00000-0 00000-0 0 9998 2 25867 51.5121 125.4703 8263672 310.4534 0.4622 0.37804985 16321